1491224400.73,4239,16.81,74070.8,6.03,1.43,1.29,0,*48
1491224401.95,4240,16.81,74068.8,6.03,1.43,1.17,0,*4B
1491224403.16,4241,16.81,74070.0,6.03,1.41,1.09,0,*47
1491224404.33,4242,16.81,74068.8,6.07,1.75,1.41,0,*4B
1491224405.58,4243,16.81,74070.0,6.09,1.89,1.63,0,*47
1491224406.83,4244,16.81,74074.0,6.13,2.01,1.63,0,*48
1491224408.05,4245,16.81,74072.3,6.15,1.93,1.43,0,*45
1491224409.28,4246,16.81,74070.8,6.17,1.83,1.37,0,*46
1491224410.5,4247,16.81,74068.5,6.19,1.59,1.13,0,*48
1491224411.72,4248,16.81,74068.5,6.21,1.59,1.13,0,*4C
1491224412.94,4249,16.81,74072.3,6.23,0.67,0.05,0,*75
1491224414.13,4250,16.81,74068.3,6.25,0.59,-0.03,0,*5D
1491224415.36,4251,16.81,74070.5,6.23,0.55,-0.07,0,*52
1491224416.57,4252,16.81,74068.3,6.25,0.71,0.25,0,*4C
1491224417.82,4253,16.81,74068.3,6.27,0.83,0.37,0,*41
1491224419.04,4254,16.81,74068.8,6.29,0.87,0.37,0,*4C
1491224420.22,4255,16.81,74070.8,6.29,0.47,0.09,0,*7C
1491224421.44,4256,16.81,74070.0,6.35,0.33,-0.07,0,*52
1491224422.63,4257,16.81,74070.0,6.37,0.17,-0.37,0,*64
1491224423.85,4258,16.81,74070.5,6.39,0.13,-0.33,0,*65
1491224425.04,4259,16.88,74072.8,6.39,0.09,-0.37,0,*5B
1491224426.27,4260,16.81,74068.8,6.43,-0.23,-0.57,0,*4F
1491224427.47,4261,16.81,74068.3,6.43,-0.19,-0.49,0,*48
1491224428.69,4262,16.81,74066.8,6.43,-0.61,-0.85,0,*44
1491224429.89,4263,16.81,74074.3,6.47,-0.77,-0.77,0,*4B
1491224431.12,4264,16.81,74068.5,6.47,-0.89,-0.81,0,*44
1491224432.35,4265,16.81,74070.0,6.47,-1.21,-1.13,0,*4C
1491224433.58,4266,16.81,74070.8,6.49,-1.13,-0.97,0,*7D
1491224434.81,4267,16.81,74070.8,6.49,-1.13,-0.97,0,*7C
1491224436.01,4268,16.81,74068.0,6.51,-0.49,-0.37,0,*4E
1491224437.21,4269,16.81,74070.0,6.57,-0.45,-0.29,0,*4A
1491224438.44,4270,16.81,74072.3,6.57,-0.41,-0.27,0,*48
1491224439.64,4271,16.81,74070.5,6.59,-0.49,-0.27,0,*4F
1491224440.85,4272,16.81,74070.5,6.61,-0.49,-0.37,0,*46
1491224442.05,4273,16.81,74070.3,6.65,-0.49,-0.33,0,*47
1491224443.23,4274,16.81,74070.0,6.67,-0.41,-0.33,0,*4A
1491224444.44,4275,16.81,74070.5,6.69,-0.73,-0.65,0,*47
1491224445.66,4276,16.88,74068.8,6.73,-0.57,-0.85,0,*47
1491224446.87,4277,16.81,74070.0,6.73,-0.61,-0.85,0,*43
1491224448.1,4278,16.88,74074.3,6.75,-0.89,-1.13,0,*72
1491224449.32,4279,16.81,74068.5,6.81,-0.93,-1.25,0,*76
1491224450.56,4280,16.81,74068.8,6.83,-1.13,-1.39,0,*46
1491224451.77,4281,16.81,74068.5,6.83,-1.67,-1.91,0,*46
1491224453.03,4282,16.81,74068.3,6.87,-1.99,-1.95,0,*44
1491224454.3,4283,16.88,74068.5,6.91,-1.99,-2.03,0,*4E
1491224455.56,4284,16.88,74070.3,6.91,-1.91,-2.03,0,*41
1491224456.77,4285,16.81,74068.0,6.95,-2.23,-2.35,0,*4B
1491224457.95,4286,16.81,74068.8,6.97,-2.19,-2.39,0,*4F
1491224459.21,4287,16.81,74070.0,6.99,-1.91,-2.03,0,*4A
1491224460.41,4288,16.81,74070.3,7.05,-1.67,-1.87,0,*47
1491224461.63,4289,16.88,74068.8,7.09,-2.07,-2.23,0,*42
1491224462.83,4290,16.81,74068.0,7.09,-2.39,-2.75,0,*44
1491224464.04,4291,16.88,74070.8,7.13,-2.75,-3.07,0,*42
1491224465.25,4292,16.81,74070.8,7.13,-2.15,-2.55,0,*41
1491224466.46,4293,16.81,74070.3,7.17,-2.15,-2.51,0,*40
1491224467.69,4294,16.88,74068.8,7.19,-2.51,-2.79,0,*43
1491224468.91,4295,16.81,74070.3,7.21,-2.23,-2.55,0,*42
1491224470.15,4296,16.88,74072.3,7.25,-2.07,-2.51,0,*47
1491224471.38,4297,16.81,74070.5,7.31,-2.59,-3.03,0,*4E
1491224472.61,4298,16.88,74070.3,7.31,-2.23,-2.67,0,*4F
1491224473.84,4299,16.88,74068.5,7.35,-1.83,-2.43,0,*45
1491224475.06,4300,16.88,74070.5,7.37,-2.03,-2.27,0,*4F
1491224476.3,4301,16.88,74070.0,7.39,-1.79,-1.99,0,*48
1491224477.5,4302,16.81,74068.8,7.41,-2.43,-2.51,0,*49
1491224478.77,4303,16.88,74070.5,7.43,-1.99,-2.07,0,*4D
1491224479.98,4304,16.88,74070.5,7.51,-1.67,-1.87,0,*43
1491224481.22,4305,16.88,74068.5,7.53,-2.39,-2.71,0,*42
1491224482.49,4306,16.88,74072.5,7.53,-2.47,-2.59,0,*42
1491224483.72,4307,16.88,74068.8,7.57,-1.71,-1.95,0,*42
1491224484.98,4308,16.88,74070.0,7.61,-1.87,-2.03,0,*4D
1491224486.22,4309,16.88,74070.0,7.63,-1.83,-2.07,0,*4E
1491224487.48,4310,16.88,74070.5,7.65,-2.59,-2.71,0,*45
1491224488.69,4311,16.88,74068.5,7.67,-2.43,-2.47,0,*48
1491224489.92,4312,16.88,74068.8,7.73,-2.43,-2.55,0,*4D
1491224491.1,4313,16.88,74068.0,7.75,-2.39,-2.39,0,*4D
1491224492.36,4314,16.88,74068.5,7.77,-2.11,-2.11,0,*48
1491224493.59,4315,16.88,74068.0,7.79,-1.91,-1.83,0,*44
1491224494.79,4316,16.81,74070.5,7.81,-1.75,-1.67,0,*40
1491224496.02,4317,16.88,74070.5,7.83,-1.87,-1.67,0,*4E
1491224497.29,4318,16.88,74070.5,7.87,-1.87,-1.83,0,*4F
1491224498.53,4319,16.88,74070.0,7.89,-1.95,-1.83,0,*43
1491224499.76,4320,16.88,74068.5,7.93,-2.07,-1.95,0,*4D
1491224500.98,4321,16.88,74070.0,7.97,-2.27,-2.03,0,*46
1491224502.21,4322,16.88,74070.3,7.99,-2.15,-1.91,0,*42
1491224503.45,4323,16.88,74072.5,8.01,-2.75,-2.55,0,*40
1491224504.69,4324,16.88,74070.8,8.01,-2.47,-1.99,0,*45
1491224505.87,4325,16.88,74068.0,8.05,-2.27,-1.75,0,*44
1491224507.05,4326,16.88,74068.8,8.05,-2.39,-1.75,0,*48
1491224508.25,4327,16.88,74070.3,8.05,-1.91,-1.17,0,*4C
1491224509.47,4328,16.88,74066.5,8.11,-1.59,-0.93,0,*7F
1491224510.68,4329,16.88,74070.0,8.11,-1.33,-0.73,0,*7C
1491224511.86,4330,16.88,74066.8,8.15,-1.21,-0.57,0,*75
1491224513.05,4331,16.88,74068.0,8.19,-1.75,-1.29,0,*41
1491224514.24,4332,16.88,74070.8,8.23,-1.59,-1.01,0,*4F
1491224515.5,4333,16.88,74070.0,8.25,-1.43,-1.05,0,*47
1491224516.71,4334,16.88,74068.0,8.29,-1.25,-0.73,0,*7C
1491224517.91,4335,16.88,74070.3,8.31,-1.01,-0.69,0,*79
1491224519.09,4336,16.88,74068.3,8.35,-1.21,-0.81,0,*7A
1491224520.3,4337,16.88,74070.0,8.35,-1.29,-0.97,0,*74
1491224521.5,4338,16.88,74070.8,8.41,-1.51,-1.25,0,*4F
1491224522.75,4339,16.88,74068.0,8.47,-1.09,-0.93,0,*79
1491224523.97,4340,16.88,74068.8,8.49,-1.17,-1.05,0,*48
1491224525.22,4341,16.88,74068.3,8.51,-0.97,-0.97,0,*43
1491224526.46,4342,16.88,74068.8,8.55,-0.93,-0.85,0,*43
1491224527.64,4343,16.88,74070.8,8.57,-0.73,-0.73,0,*47
1491224528.89,4344,16.88,74070.0,8.63,-0.89,-0.97,0,*48
1491224530.12,4345,16.88,74068.0,8.65,-0.89,-1.13,0,*72
1491224531.35,4346,16.88,74068.8,8.69,-0.93,-1.09,0,*7D
1491224532.57,4347,16.88,74072.0,8.71,-0.65,-0.89,0,*45
1491224533.77,4348,16.88,74068.8,8.73,-0.77,-1.01,0,*7A
1491224534.98,4349,16.88,74070.5,8.75,-1.25,-1.55,0,*4A
1491224536.19,4350,16.88,74070.0,8.79,-1.63,-1.91,0,*44
1491224537.4,4351,16.88,74070.5,8.81,-0.81,-1.21,0,*74
1491224538.63,4352,16.88,74068.8,8.87,-1.43,-1.83,0,*46
1491224539.83,4353,16.88,74068.8,8.87,-0.69,-1.09,0,*7C
1491224541.04,4354,16.88,74068.8,8.89,-1.59,-2.23,0,*4C
1491224542.27,4355,16.88,74066.3,8.93,-1.83,-2.39,0,*4A
1491224543.51,4356,16.88,74070.3,8.95,-2.11,-2.63,0,*48
1491224544.68,4357,16.88,74064.8,8.95,-2.27,-2.91,0,*41
1491224545.86,4358,16.88,74070.5,8.95,-2.43,-3.03,0,*46
1491224547.06,4359,16.88,74068.5,8.95,-2.63,-3.31,0,*44
1491224548.26,4360,16.88,74068.0,8.95,-2.87,-3.63,0,*43
1491224549.49,4361,16.88,74070.0,8.97,-2.87,-3.59,0,*49
1491224550.72,4362,16.88,74066.3,8.97,-2.87,-3.59,0,*4A
1491224551.94,4363,16.88,74068.5,8.97,-2.83,-3.63,0,*46
1491224553.16,4364,16.88,74068.0,8.97,-2.87,-3.71,0,*46
1491224554.37,4365,16.88,74066.8,8.97,-3.07,-3.75,0,*4A
1491224555.59,4366,16.88,74066.8,8.97,-2.99,-3.71,0,*4B
1491224556.8,4367,16.88,74064.5,8.97,-2.39,-2.95,0,*4B
1491224558.03,4368,16.88,74068.0,8.97,-1.87,-2.39,0,*44
1491224559.27,4369,16.88,74068.3,9.01,-1.33,-1.91,0,*45
1491224560.47,4370,16.88,74070.5,9.03,-1.91,-2.43,0,*4B
1491224561.65,4371,16.88,74068.0,9.03,-1.59,-2.27,0,*4C
1491224562.83,4372,16.88,74066.3,9.03,-1.79,-2.31,0,*4A
1491224564.08,4373,16.88,74068.0,9.05,-1.47,-2.03,0,*41
1491224565.3,4374,16.88,74070.3,9.09,-1.33,-1.87,0,*46
1491224566.54,4375,16.88,74068.0,9.11,-1.01,-1.59,0,*4C
1491224567.77,4376,16.88,74066.3,9.13,-0.85,-1.43,0,*7B
1491224568.98,4377,16.88,74068.0,9.17,-0.81,-1.39,0,*77
1491224570.24,4378,16.88,74066.8,9.19,-0.97,-1.39,0,*71
1491224571.45,4379,16.88,74066.5,9.21,-1.09,-1.55,0,*47
1491224572.71,4380,16.88,74066.5,9.23,-0.97,-1.43,0,*72
1491224573.95,4381,16.88,74068.3,9.25,-1.05,-1.43,0,*4F
1491224575.17,4382,16.88,74068.0,9.25,-1.05,-1.51,0,*4F
1491224576.43,4383,16.88,74066.8,9.31,-1.01,-1.39,0,*41
1491224577.66,4384,16.88,74064.8,9.33,-1.09,-1.47,0,*45
1491224578.89,4385,16.88,74066.5,9.35,-1.35,-1.79,0,*40
1491224580.1,4386,16.88,74066.5,9.35,-1.21,-1.59,0,*44
1491224581.31,4387,16.88,74066.8,9.39,-1.21,-1.79,0,*4B
1491224582.51,4388,16.88,74068.5,9.43,-0.61,-1.13,0,*70
1491224583.72,4389,16.88,74070.5,9.43,-1.35,-1.79,0,*4D
1491224584.94,4390,16.88,74066.8,9.45,-1.25,-1.71,0,*4A
1491224586.12,4391,16.88,74070.5,9.47,-1.17,-1.75,0,*4C
1491224587.36,4392,16.88,74066.0,9.49,-0.77,-1.39,0,*7E
1491224588.52,4393,16.88,74068.3,9.55,-0.61,-1.33,0,*7F
1491224589.76,4394,16.88,74066.5,9.57,-0.73,-1.47,0,*7A
1491224590.97,4395,16.88,74066.0,9.59,-0.97,-1.79,0,*72
1491224592.23,4396,16.88,74066.8,9.61,-1.05,-1.91,0,*46
1491224593.5,4397,16.88,74066.0,9.65,-1.13,-2.11,0,*4F
1491224594.74,4398,16.88,74068.3,9.65,-1.35,-2.31,0,*46
1491224595.97,4399,16.88,74068.0,9.69,-1.05,-2.15,0,*4E
1491224597.24,4400,16.88,74068.5,9.69,-1.43,-2.67,0,*4E
1491224598.42,4401,16.88,74066.0,9.67,-1.21,-2.43,0,*43
1491224599.63,4402,16.88,74066.8,9.71,-1.13,-2.23,0,*40
1491224600.85,4403,16.88,74066.8,9.73,-1.17,-2.27,0,*43
1491224602.04,4404,16.88,74066.3,9.79,-1.29,-2.35,0,*40
1491224603.23,4405,16.88,74064.5,9.79,-1.33,-2.39,0,*46
1491224604.42,4406,16.88,74066.0,9.79,-1.21,-2.31,0,*4E
1491224605.66,4407,16.88,74064.8,9.83,-1.01,-2.03,0,*49
1491224606.87,4408,16.88,74066.8,9.83,-1.51,-2.55,0,*40
1491224608.08,4409,16.88,74064.8,9.87,-1.83,-2.95,0,*46
1491224609.29,4410,16.88,74064.3,9.87,-1.99,-3.15,0,*4C
1491224610.47,4411,16.88,74064.5,9.87,-1.75,-2.87,0,*45
1491224611.68,4412,16.88,74066.0,9.87,-1.99,-3.15,0,*4E
1491224612.92,4413,16.88,74066.3,9.89,-1.91,-2.95,0,*40
1491224614.15,4414,16.88,74068.3,9.89,-1.59,-2.71,0,*49
1491224615.38,4415,16.88,74064.5,9.93,-1.51,-2.55,0,*4D
1491224616.61,4416,16.88,74068.0,9.95,-1.71,-2.71,0,*4C
1491224617.79,4417,16.88,74064.0,9.95,-1.75,-2.83,0,*44
1491224619.0,4418,16.88,74068.5,9.95,-2.47,-3.35,0,*45
1491224620.18,4419,16.88,74066.0,9.99,-2.27,-3.23,0,*49
1491224621.41,4420,16.88,74066.0,10.01,-1.79,-2.71,0,*74
1491224622.65,4421,16.88,74066.3,10.01,-1.79,-2.67,0,*72
1491224623.86,4422,16.88,74064.5,10.03,-1.79,-2.63,0,*77
1491224625.06,4423,16.88,74066.0,10.05,-1.67,-2.43,0,*7D
1491224626.32,4424,16.88,74060.5,10.07,-1.91,-2.59,0,*7A
1491224627.57,4425,16.88,74066.8,10.09,-1.83,-2.55,0,*7A
1491224628.81,4426,16.88,74066.0,10.09,-1.87,-2.55,0,*7D
1491224630.08,4427,16.88,74066.8,10.11,-1.87,-2.55,0,*75
1491224631.32,4428,16.88,74064.3,10.13,-1.95,-2.55,0,*7B
1491224632.54,4429,16.88,74064.0,10.13,-2.19,-2.63,0,*78
1491224633.74,4430,16.88,74064.3,10.15,-2.19,-2.79,0,*7D
1491224634.96,4431,16.88,74066.0,10.17,-1.87,-2.35,0,*72
1491224636.14,4432,16.88,74064.3,10.17,-1.75,-2.27,0,*7F
1491224637.36,4433,16.88,74066.0,10.21,-2.63,-3.11,0,*7B
1491224638.55,4434,16.88,74064.3,10.21,-2.31,-2.83,0,*71
1491224639.76,4435,16.88,74060.8,10.27,-2.27,-2.79,0,*74
1491224640.96,4436,16.88,74064.8,10.25,-1.91,-2.43,0,*72
1491224642.18,4437,16.88,74064.5,10.27,-1.71,-2.43,0,*7F
1491224643.42,4438,16.88,74066.5,10.27,-1.83,-2.43,0,*7D
1491224644.66,4439,16.88,74064.5,10.29,-2.11,-2.75,0,*7F
1491224645.88,4440,16.88,74066.3,10.29,-2.55,-3.27,0,*77
1491224647.12,4441,16.88,74066.0,10.31,-2.95,-3.59,0,*7A
1491224648.37,4442,16.88,74064.8,10.31,-3.27,-4.01,0,*7B
1491224649.57,4443,16.88,74066.8,10.33,-3.07,-3.67,0,*7D
1491224650.77,4444,16.88,74064.5,10.33,-2.83,-3.43,0,*71
1491224651.95,4445,16.88,74064.3,10.33,-2.31,-2.79,0,*71
1491224653.16,4446,16.94,74066.3,10.33,-2.67,-3.07,0,*79
1491224654.36,4447,16.88,74066.0,10.35,-2.19,-2.79,0,*7F
1491224655.61,4448,16.88,74064.5,10.37,-2.75,-3.27,0,*72
1491224656.87,4449,16.94,74066.3,10.37,-2.75,-3.51,0,*72
1491224658.1,4450,16.88,74062.5,10.37,-2.87,-3.67,0,*72
1491224659.33,4451,16.88,74060.8,10.39,-2.75,-3.55,0,*71
1491224660.52,4452,16.88,74064.5,10.39,-2.87,-3.87,0,*70
1491224661.78,4453,16.88,74064.5,10.41,-2.59,-3.59,0,*7E
1491224663.02,4454,16.88,74060.8,10.45,-2.95,-4.01,0,*77
1491224664.25,4455,16.88,74062.5,10.45,-2.79,-3.71,0,*74
1491224665.5,4456,16.94,74066.8,10.45,-2.59,-3.55,0,*73
1491224666.7,4457,16.94,74066.8,10.45,-2.83,-3.83,0,*7E
1491224667.97,4458,16.94,74066.0,10.49,-2.51,-3.59,0,*75
1491224669.18,4459,16.88,74066.3,10.49,-2.91,-3.91,0,*7C
1491224670.39,4460,16.88,74066.0,10.49,-3.07,-3.87,0,*7F
1491224671.6,4461,16.94,74066.5,10.49,-3.03,-3.91,0,*7D
1491224672.79,4462,16.88,74066.3,10.51,-2.87,-3.79,0,*7C
1491224673.98,4463,16.88,74066.5,10.55,-3.11,-3.87,0,*76
1491224675.19,4464,16.88,74066.3,10.53,-2.99,-3.87,0,*76
1491224676.45,4465,16.88,74064.0,10.53,-3.63,-4.69,0,*74
1491224677.64,4466,16.88,74066.0,10.55,-3.87,-4.99,0,*74
1491224678.86,4467,16.94,74064.0,10.55,-4.09,-5.11,0,*75
1491224680.07,4468,16.94,74066.8,10.57,-3.87,-4.99,0,*78
1491224681.26,4469,16.94,74066.5,10.55,-4.37,-5.43,0,*71
1491224682.5,4470,16.88,74062.8,10.53,-4.05,-5.07,0,*7E
1491224683.69,4471,16.88,74064.5,10.55,-3.87,-4.99,0,*72
1491224684.92,4472,16.94,74064.0,10.57,-3.55,-4.45,0,*7D
1491224686.14,4473,16.94,74064.5,10.55,-3.79,-4.77,0,*71
1491224687.38,4474,16.94,74066.0,10.57,-3.87,-4.85,0,*78
1491224688.63,4475,16.94,74064.0,10.57,-4.13,-5.15,0,*7B
1491224689.84,4476,16.94,74066.3,10.57,-4.33,-5.43,0,*79
1491224691.07,4477,16.94,74066.0,10.57,-4.61,-5.69,0,*77
1491224692.33,4478,16.94,74064.0,10.57,-4.73,-5.77,0,*74
1491224693.51,4479,16.94,74066.8,10.59,-4.99,-6.13,0,*7E
1491224694.75,4480,16.94,74062.0,10.57,-5.69,-6.85,0,*77
1491224695.95,4481,16.88,74060.8,10.55,-5.11,-6.13,0,*74
1491224697.16,4482,16.94,74066.0,10.57,-4.37,-5.39,0,*7B
1491224698.34,4483,16.94,74064.8,10.55,-4.45,-5.43,0,*70
1491224699.54,4484,16.94,74064.8,10.57,-4.45,-5.43,0,*75
1491224700.82,4485,16.88,74060.0,10.57,-4.01,-5.03,0,*70
1491224702.04,4486,16.94,74064.3,10.59,-4.17,-5.19,0,*71
1491224703.24,4487,16.94,74064.8,10.57,-4.61,-5.43,0,*70
1491224704.48,4488,16.94,74062.5,10.57,-5.65,-6.73,0,*7A
1491224705.69,4489,16.94,74062.3,10.57,-5.39,-6.55,0,*76
1491224706.9,4490,16.94,74060.3,10.55,-4.89,-6.13,0,*74
1491224708.11,4491,16.94,74064.0,10.57,-5.39,-6.47,0,*7C
1491224709.3,4492,16.94,74062.8,10.55,-5.55,-6.69,0,*7B
1491224710.52,4493,16.94,74064.0,10.55,-5.77,-7.11,0,*74
1491224711.76,4494,16.88,74060.8,10.57,-5.65,-6.85,0,*7E
1491224712.97,4495,16.94,74064.3,10.55,-5.65,-6.85,0,*7D
1491224714.21,4496,16.94,74066.0,10.53,-5.69,-6.85,0,*74
1491224715.43,4497,16.94,74064.3,10.51,-5.73,-6.81,0,*78
1491224716.64,4498,16.88,74060.8,10.51,-5.89,-7.19,0,*72
1491224717.9,4499,16.94,74066.5,10.49,-5.85,-7.05,0,*7B
1491224719.12,4500,16.94,74066.8,10.49,-5.97,-7.19,0,*74
1491224720.33,4501,16.94,74062.3,10.49,-5.47,-6.69,0,*7E
1491224721.53,4502,16.94,74066.0,10.47,-5.55,-6.69,0,*70
1491224722.76,4503,16.94,74064.0,10.49,-5.73,-6.85,0,*79
1491224723.98,4504,16.94,74060.0,10.47,-5.65,-6.85,0,*77
1491224725.2,4505,16.88,74060.0,10.47,-6.13,-7.27,0,*7D
1491224726.43,4506,16.94,74060.8,10.45,-6.55,-7.91,0,*73
1491224727.64,4507,16.94,74062.8,10.41,-6.35,-7.53,0,*7E
1491224728.89,4508,16.94,74064.5,10.41,-6.77,-8.07,0,*79
1491224730.12,4509,16.94,74066.0,10.41,-6.73,-7.95,0,*78
1491224731.34,4510,16.94,74060.8,10.39,-6.63,-7.87,0,*7D
1491224732.61,4511,16.94,74060.8,10.37,-6.23,-7.43,0,*7E
1491224733.86,4512,16.94,74062.0,10.37,-6.35,-7.61,0,*7A
1491224735.09,4513,16.94,74062.5,10.37,-7.01,-8.29,0,*7E
1491224736.3,4514,16.94,74062.8,10.35,-6.73,-8.17,0,*72
1491224737.5,4515,16.94,74064.8,10.33,-7.05,-8.33,0,*73
1491224738.71,4516,16.94,74060.5,10.33,-6.97,-8.33,0,*7A
1491224739.93,4517,16.94,74062.5,10.31,-7.11,-8.45,0,*77
1491224741.16,4518,16.94,74060.5,10.31,-7.39,-8.75,0,*71
1491224742.42,4519,16.94,74062.0,10.27,-7.91,-9.37,0,*72
1491224743.61,4520,16.94,74062.5,10.25,-7.87,-9.23,0,*78
1491224744.81,4521,16.94,74062.0,10.25,-7.53,-9.11,0,*71
1491224746.0,4522,16.94,74060.8,10.21,-7.49,-8.85,0,*71
1491224747.21,4523,16.94,74066.0,10.21,-7.91,-9.31,0,*7B
1491224748.45,4524,16.94,74060.8,10.17,-7.73,-9.15,0,*73
1491224749.66,4525,16.94,74062.3,10.15,-7.87,-9.31,0,*7D
1491224750.85,4526,16.94,74066.3,10.13,-8.25,-9.67,0,*7C
1491224752.07,4527,16.94,74060.5,10.11,-8.29,-9.67,0,*73
1491224753.26,4528,16.94,74064.3,10.09,-8.41,-9.93,0,*70
1491224754.49,4529,16.94,74060.3,10.07,-9.01,-10.53,0,*4E
1491224755.68,4530,16.94,74062.3,10.03,-8.41,-9.89,0,*78
1491224756.87,4531,16.94,74060.8,10.03,-8.41,-9.89,0,*79
1491224758.1,4532,16.94,74062.0,10.01,-8.85,-10.35,0,*4F
1491224759.32,4533,16.94,74060.8,9.99,-8.51,-10.01,0,*79
1491224760.52,4534,16.94,74062.8,9.99,-8.63,-10.01,0,*7F
1491224761.73,4535,16.94,74062.5,9.93,-8.37,-9.89,0,*4D
1491224762.95,4536,16.94,74060.0,9.93,-8.37,-9.93,0,*45
1491224764.13,4537,16.94,74062.3,9.91,-8.21,-9.67,0,*4A
1491224765.36,4538,16.94,74062.0,9.89,-8.85,-10.35,0,*7D
1491224766.56,4539,16.94,74062.8,9.87,-8.63,-10.15,0,*78
1491224767.78,4540,16.94,74060.8,9.85,-8.97,-10.53,0,*7D
1491224768.97,4541,16.94,74060.0,9.83,-8.63,-10.05,0,*72
1491224770.18,4542,16.94,74064.8,9.81,-8.29,-9.79,0,*4E
1491224771.45,4543,16.94,74060.5,9.81,-8.07,-9.53,0,*4B
1491224772.68,4544,16.94,74062.0,9.79,-7.99,-9.53,0,*43
1491224773.87,4545,16.94,74062.5,9.79,-8.21,-9.75,0,*4A
1491224775.12,4546,16.94,74062.3,9.77,-8.03,-9.53,0,*43
1491224776.31,4547,16.94,74060.3,9.79,-8.21,-9.79,0,*44
1491224777.53,4548,16.94,74064.0,9.73,-8.75,-10.27,0,*73
1491224778.72,4549,16.94,74060.5,9.71,-8.67,-10.15,0,*72
1491224779.92,4550,16.94,74058.5,9.71,-8.41,-10.01,0,*7B
1491224781.11,4551,16.94,74058.3,9.71,-8.55,-10.05,0,*7B
1491224782.29,4552,16.94,74062.3,9.67,-8.33,-9.75,0,*40
1491224783.5,4553,16.94,74060.0,9.69,-8.21,-9.79,0,*40
1491224784.69,4554,16.94,74058.0,9.67,-8.85,-10.49,0,*7C
1491224785.88,4555,16.94,74058.8,9.63,-9.23,-10.85,0,*74
1491224787.09,4556,16.94,74062.8,9.63,-9.37,-10.89,0,*7E
1491224788.3,4557,16.94,74062.3,9.59,-9.61,-11.15,0,*71
1491224789.52,4558,16.94,74062.3,9.59,-9.37,-10.85,0,*75
1491224790.76,4559,16.94,74064.3,9.57,-8.97,-10.63,0,*79
1491224791.98,4560,16.94,74062.0,9.55,-9.27,-10.79,0,*70
1491224793.18,4561,16.94,74060.0,9.55,-8.71,-10.27,0,*78
1491224794.37,4562,16.94,74062.8,9.55,-9.31,-10.97,0,*75
1491224795.59,4563,16.94,74060.3,9.49,-9.23,-10.97,0,*7A
1491224796.84,4564,16.94,74064.0,9.49,-9.37,-10.97,0,*78
1491224798.07,4565,16.94,74060.8,9.45,-9.67,-11.33,0,*7F
1491224799.26,4566,16.94,74060.0,9.43,-9.67,-11.19,0,*72
1491224800.48,4567,16.94,74062.0,9.43,-9.23,-10.79,0,*74
1491224801.77,4568,16.94,74062.0,9.41,-9.15,-10.67,0,*73
1491224803.01,4569,16.94,74062.8,9.41,-9.05,-10.79,0,*7C
1491224804.24,4570,16.94,74060.8,9.41,-8.89,-10.45,0,*7E
1491224805.46,4571,16.94,74062.5,9.37,-9.37,-11.01,0,*7B
1491224806.67,4572,16.94,74060.0,9.37,-9.19,-10.71,0,*72
1491224807.87,4573,16.94,74060.0,9.37,-9.67,-11.33,0,*7D
1491224809.08,4574,16.94,74060.3,9.33,-9.79,-11.33,0,*71
1491224810.29,4575,16.94,74058.3,9.33,-9.79,-11.33,0,*70
1491224811.5,4576,16.94,74060.0,9.31,-9.97,-11.41,0,*74
1491224812.72,4577,16.94,74060.0,9.27,-9.79,-11.41,0,*72
1491224813.95,4578,16.94,74062.5,9.27,-9.67,-11.33,0,*77
1491224815.14,4579,16.94,74064.3,9.25,-9.79,-11.41,0,*7E
1491224816.4,4580,16.94,74066.0,9.23,-9.53,-11.29,0,*78
1491224817.66,4581,16.94,74058.0,9.23,-10.19,-11.89,0,*45
1491224818.9,4582,16.94,74060.5,9.19,-10.01,-11.51,0,*43
1491224820.11,4583,16.94,74060.8,9.19,-9.89,-11.41,0,*7B
1491224821.35,4584,16.94,74062.3,9.19,-9.71,-11.37,0,*7A
1491224822.58,4585,16.94,74062.5,9.15,-9.93,-11.59,0,*73
1491224823.81,4586,16.94,74060.5,9.15,-9.89,-11.55,0,*77
1491224825.01,4587,16.94,74058.0,9.13,-10.45,-12.03,0,*48
1491224826.23,4588,16.94,74062.0,9.13,-10.31,-11.85,0,*49
1491224827.45,4589,16.94,74060.8,9.11,-10.93,-12.47,0,*4F
1491224828.68,4590,16.94,74062.5,9.09,-10.01,-11.67,0,*44
1491224829.92,4591,16.94,74062.5,9.05,-10.71,-12.39,0,*46
1491224831.16,4592,16.94,74058.3,9.01,-10.45,-11.97,0,*41
1491224832.43,4593,16.94,74064.8,9.01,-10.79,-12.53,0,*44
1491224833.64,4594,16.94,74060.3,8.99,-10.49,-12.15,0,*42
1491224834.86,4595,16.94,74064.5,8.97,-10.49,-12.03,0,*4A
1491224836.1,4596,16.94,74062.5,8.97,-10.53,-12.07,0,*46
1491224837.34,4597,16.94,74062.3,8.93,-10.57,-12.11,0,*40
1491224838.59,4598,16.94,74062.8,8.93,-10.19,-11.77,0,*46
1491224839.83,4599,16.94,74060.0,8.93,-10.19,-11.77,0,*47
1491224841.07,4600,16.94,74062.0,8.89,-10.97,-12.61,0,*4D
1491224842.29,4601,16.94,74066.3,8.87,-10.75,-12.29,0,*42
1491224843.54,4602,16.94,74062.8,8.85,-10.57,-12.11,0,*48
1491224844.81,4603,16.94,74062.5,8.85,-10.71,-12.11,0,*4D
1491224846.06,4604,16.94,74062.5,8.81,-10.75,-12.43,0,*4D
1491224847.29,4605,16.94,74060.5,8.79,-11.33,-12.89,0,*4E
1491224848.51,4606,16.94,74062.0,8.79,-10.97,-12.65,0,*40
1491224849.78,4607,16.94,74060.5,8.75,-10.41,-11.89,0,*47
1491224851.01,4608,16.94,74064.3,8.77,-10.89,-12.43,0,*4B
1491224852.25,4609,16.94,74062.5,8.73,-11.07,-12.65,0,*4D
1491224853.44,4610,16.94,74064.3,8.73,-10.93,-12.39,0,*40
1491224854.69,4611,16.94,74062.0,8.71,-11.01,-12.65,0,*40
1491224855.94,4612,16.94,74062.8,8.71,-11.15,-12.71,0,*43
1491224857.16,4613,16.94,74060.8,8.69,-11.37,-12.97,0,*43
1491224858.44,4614,16.94,74060.8,8.67,-10.63,-12.15,0,*40
1491224859.69,4615,16.94,74062.3,8.67,-10.75,-12.21,0,*41
1491224860.89,4616,16.94,74062.0,8.65,-10.93,-12.39,0,*41
1491224862.14,4617,16.94,74062.0,8.63,-11.23,-12.79,0,*48
1491224863.41,4618,16.94,74062.0,8.59,-11.81,-13.29,0,*42
1491224864.65,4619,16.94,74062.5,8.57,-11.85,-13.29,0,*49
1491224865.9,4620,16.94,74062.3,8.55,-11.45,-13.01,0,*47
1491224867.12,4621,16.94,74060.8,8.53,-11.51,-13.07,0,*43
1491224868.34,4622,16.94,74060.5,8.53,-11.41,-13.01,0,*47
1491224869.6,4623,16.94,74062.3,8.51,-11.81,-13.37,0,*4D
1491224870.85,4624,16.94,74062.8,8.49,-11.37,-12.83,0,*40
1491224872.09,4625,17.0,74066.3,8.49,-11.37,-12.83,0,*41
1491224873.34,4626,16.94,74064.8,8.45,-11.89,-13.29,0,*4A
1491224874.59,4627,17.0,74066.5,8.45,-11.73,-13.29,0,*4E
1491224875.81,4628,16.94,74062.5,8.41,-10.89,-12.25,0,*4C
1491224877.02,4629,16.94,74064.0,8.39,-11.23,-12.57,0,*46
1491224878.24,4630,16.94,74060.3,8.39,-11.59,-13.11,0,*40
1491224879.48,4631,16.94,74060.3,8.35,-11.77,-13.29,0,*4A
1491224880.74,4632,16.94,74064.3,8.33,-11.59,-13.01,0,*49
1491224882.0,4633,16.94,74064.3,8.33,-11.45,-12.75,0,*47
1491224883.23,4634,16.94,74060.3,8.33,-11.19,-12.61,0,*4C
1491224884.48,4635,16.94,74062.5,8.33,-11.77,-13.19,0,*4B
1491224885.73,4636,17.0,74066.3,8.29,-12.11,-13.55,0,*48
1491224886.95,4637,16.94,74064.5,8.27,-11.67,-12.97,0,*4A
1491224888.19,4638,16.94,74062.5,8.27,-11.29,-12.65,0,*42
1491224889.41,4639,17.0,74066.8,8.25,-11.01,-12.39,0,*42
1491224890.66,4640,16.94,74062.8,8.25,-11.41,-12.83,0,*49
1491224891.94,4641,16.94,74064.3,8.25,-11.29,-12.71,0,*4B
1491224893.13,4642,16.94,74060.8,8.23,-11.01,-12.39,0,*48
1491224894.36,4643,16.94,74060.8,8.23,-11.45,-12.75,0,*41
1491224895.62,4644,16.94,74060.0,8.21,-11.33,-12.65,0,*44
1491224896.86,4645,16.94,74062.0,8.21,-11.19,-12.61,0,*49
1491224898.11,4646,16.94,74062.3,8.19,-11.37,-12.71,0,*4C
1491224899.34,4647,17.0,74064.8,8.19,-11.01,-12.35,0,*48
1491224900.54,4648,17.0,74066.0,8.19,-10.85,-12.21,0,*4F
1491224901.79,4649,16.94,74062.5,8.19,-11.51,-12.71,0,*43
1491224903.01,4650,16.94,74060.5,8.19,-11.15,-12.53,0,*4B
1491224904.28,4651,17.0,74064.3,8.17,-11.29,-12.65,0,*4E
1491224905.5,4652,17.0,74066.5,8.15,-11.41,-12.65,0,*41
1491224906.74,4653,16.94,74064.0,8.15,-11.89,-13.29,0,*4D
1491224907.97,4654,16.94,74060.8,8.11,-11.73,-13.15,0,*44
1491224909.21,4655,16.94,74060.5,8.11,-11.77,-13.15,0,*41
1491224910.48,4656,16.94,74060.8,8.11,-11.33,-12.61,0,*40
1491224911.72,4657,16.94,74062.8,8.11,-10.89,-12.15,0,*42
1491224912.92,4658,16.94,74062.0,8.09,-10.89,-12.03,0,*43
1491224914.13,4659,16.94,74060.8,8.07,-11.15,-12.39,0,*41
1491224915.38,4660,17.0,74064.5,8.09,-11.37,-12.79,0,*41
1491224916.6,4661,16.94,74062.3,8.07,-11.23,-12.39,0,*4F
1491224917.87,4662,16.94,74062.8,8.07,-10.71,-11.97,0,*4D